Location: Gerlach
(40.6516°N, 119.3568°W)
Time: 10:24:45
(UTC-08:00)

Courier 1B Rocket - All Passes

Search period start: 07 February 2023 00:00
Search period end: 17 February 2023 00:00
Orbit: 920 x 1202 km, 28.2° (Epoch: 07 February)

Date Brightness Start Highest point End Pass type
(mag) Time Alt. Az. Time Alt. Az. Time Alt. Az.
07 Feb - 14:22:44 10° SSW 14:27:08 19° SSE 14:31:25 10° ESE daylight
07 Feb - 16:14:31 10° SW 16:19:41 26° S 16:24:44 10° ESE daylight
07 Feb - 18:07:37 10° WSW 18:12:13 22° SSW 18:16:48 10° SE visible
07 Feb - 20:04:16 10° SSW 20:04:35 10° SSW 20:04:52 10° SSW visible
08 Feb - 13:22:35 10° SSW 13:26:20 16° SSE 13:29:59 10° SE daylight
08 Feb - 15:13:41 10° SW 15:18:52 25° S 15:23:54 10° ESE daylight
08 Feb - 17:06:28 10° WSW 17:11:27 24° S 17:16:20 10° SE daylight
08 Feb - 19:00:48 10° SW 19:03:52 14° SSW 19:06:55 10° S visible
09 Feb - 12:23:06 10° S 12:25:32 12° SSE 12:27:54 10° SE daylight
09 Feb - 14:12:57 10° SW 14:18:03 23° S 14:22:57 10° ESE daylight
09 Feb - 16:05:24 10° WSW 16:10:39 26° S 16:15:45 10° SE daylight
09 Feb - 17:59:04 10° WSW 18:03:08 18° SSW 18:07:10 10° SSE visible
10 Feb - 13:12:23 10° SSW 13:17:13 20° SSE 13:21:51 10° ESE daylight
10 Feb - 15:04:23 10° SW 15:09:50 27° S 15:15:03 10° ESE daylight
10 Feb - 16:57:40 10° WSW 17:02:24 22° SSW 17:07:01 10° SE daylight
11 Feb - 12:12:04 10° SSW 12:16:22 17° SSE 12:20:29 10° ESE daylight
11 Feb - 14:03:26 10° SW 14:08:59 26° S 14:14:14 10° ESE daylight
11 Feb - 15:56:24 10° WSW 16:01:36 25° S 16:06:37 10° SE daylight
11 Feb - 17:50:56 10° SW 17:54:00 14° SSW 17:57:03 10° S visible
12 Feb - 11:12:18 10° S 11:15:30 13° SSE 11:18:37 10° SE daylight
12 Feb - 13:02:36 10° SW 13:08:06 25° S 13:13:20 10° ESE daylight
12 Feb - 14:55:13 10° WSW 15:00:47 27° S 15:06:05 10° SE daylight
12 Feb - 16:49:03 10° WSW 16:53:17 18° SSW 16:57:25 10° SSE daylight
13 Feb - 12:01:55 10° SSW 12:07:12 22° SSE 12:12:14 10° ESE daylight
13 Feb - 13:54:06 10° SW 13:59:55 28° S 14:05:24 10° ESE daylight
13 Feb - 15:47:32 10° WSW 15:52:31 22° SSW 15:57:19 10° SE daylight
14 Feb - 11:01:31 10° SSW 11:06:18 18° SSE 11:10:53 10° ESE daylight
14 Feb - 12:53:04 10° SW 12:59:00 28° S 13:04:35 10° ESE daylight
14 Feb - 14:46:10 10° WSW 14:51:42 26° S 14:56:57 10° SE daylight
14 Feb - 16:40:50 10° SW 16:44:08 14° SSW 16:47:21 10° S daylight
15 Feb - 10:01:34 10° S 10:05:22 15° SSE 10:09:05 10° SE daylight
15 Feb - 11:52:09 10° SW 11:58:03 26° S 12:03:39 10° ESE daylight
15 Feb - 13:44:54 10° WSW 13:50:49 29° S 13:56:25 10° SE daylight
15 Feb - 15:38:51 10° WSW 15:43:23 19° SSW 15:47:45 10° SSE daylight
16 Feb - 09:03:03 10° SSE 09:04:28 11° SSE 09:05:51 10° SE daylight
16 Feb - 10:51:25 10° SW 10:57:06 23° SSE 11:02:32 10° ESE daylight
16 Feb - 12:43:42 10° WSW 12:49:54 30° S 12:55:43 10° ESE daylight
16 Feb - 14:37:14 10° WSW 14:42:34 23° SSW 14:47:39 10° SE daylight
16 Feb - 16:34:07 10° SW 16:34:54 10° SSW 16:35:41 10° SSW daylight
